Weather History for KAVP - July, 2013

Change the Weather History Date:

Wednesday, July 24, 2013

  Actual Average Record
Temperature  
Mean Temperature 67 °F 72 °F  
Max Temperature 76 °F 82 °F 95 °F (1933)
Min Temperature 58 °F 61 °F 49 °F (1985)
Degree Days  
Heating Degree Days 0 0  
Month to date heating degree days 0 0  
Since 1 June heating degree days 21 54  
Since 1 July heating degree days 0 0  
Cooling Degree Days 2 7  
Month to date cooling degree days 305 163  
Year to date cooling degree days 505 317  
Since 1 June cooling degree days 441 280  
Growing Degree Days 18 (Base 50)    
Moisture  
Dew Point 56 °F    
Average Humidity 69    
Maximum Humidity 93    
Minimum Humidity 44    
Precipitation  
Precipitation 0.00 in 0.13 in 3.28 in (1933)
Month to date precipitation 1.19 2.88  
Year to date precipitation 16.37 20.71  
Sea Level Pressure  
Sea Level Pressure 29.81 in    
Wind  
Wind Speed 8 mph (North)    
Max Wind Speed 20 mph    
Max Gust Speed 24 mph    
Visibility 10 miles    
Events      
T = Trace of Precipitation, MM = Missing Value Source: NWS Daily Summary

Daily Weather History Graph

Daily Weather History Graph

Search for Another Location

Airport or City:

Trip Planner

Search our weather history database for the weather conditions in past years. The results will help you decide how hot, cold, wet, or windy it might be!

Date:

Astronomy

Jul. 24, 2013 Rise Set
Actual Time 5:50 AM EDT 8:27 PM EDT
Civil Twilight 5:18 AM EDT 8:59 PM EDT
Nautical Twilight 4:38 AM EDT 9:39 PM EDT
Astronomical Twilight 3:53 AM EDT 10:24 PM EDT
Moon 9:29 PM EDT (7/24) 8:10 AM EDT (7/24)
Length of Visible Light 15h 40m
Length of Day
14h 37m
Waning Gibbous, 95% of the Moon is Illuminated
Jul 24
Waning Gibbous
Jul 29
Last Quarter
Aug 6
New
Aug 14
First Quarter
Aug 20
Full

Hourly Weather History & Observations

Time (EDT) Temp. Dew Point Humidity Pressure Visibility Wind Dir Wind Speed Gust Speed Precip Events Conditions
12:54 AM 71.1 °F 64.9 °F 81% 29.68 in 10.0 mi NNW 6.9 mph - N/A   Mostly Cloudy
1:16 AM 71.6 °F 62.6 °F 73% 29.71 in 10.0 mi Calm Calm - N/A   Overcast
1:54 AM 71.1 °F 62.1 °F 73% 29.67 in 10.0 mi NW 3.5 mph - N/A   Overcast
2:54 AM 69.1 °F 62.1 °F 78% 29.67 in 10.0 mi NNW 4.6 mph - N/A   Clear
3:54 AM 66.9 °F 63.0 °F 87% 29.68 in 10.0 mi Calm Calm - N/A   Clear
4:42 AM 64.4 °F 62.6 °F 94% 29.71 in 8.0 mi Calm Calm - N/A   Mostly Cloudy
4:54 AM 64.9 °F 62.1 °F 90% 29.68 in 8.0 mi Calm Calm - N/A   Mostly Cloudy
5:33 AM 64.4 °F 62.6 °F 94% 29.70 in 8.0 mi Calm Calm - N/A   Mostly Cloudy
5:54 AM 66.0 °F 63.0 °F 90% 29.69 in 9.0 mi Calm Calm - N/A   Mostly Cloudy
6:01 AM 66.2 °F 62.6 °F 88% 29.72 in 9.0 mi Calm Calm - N/A   Mostly Cloudy
6:38 AM 66.2 °F 62.6 °F 88% 29.74 in 10.0 mi Calm Calm - N/A   Overcast
6:54 AM 66.9 °F 63.0 °F 87% 29.72 in 8.0 mi NNW 3.5 mph - N/A   Overcast
7:17 AM 66.2 °F 59.0 °F 78% 29.76 in 10.0 mi North 10.4 mph - N/A   Overcast
7:54 AM 66.0 °F 57.9 °F 75% 29.76 in 10.0 mi North 8.1 mph - N/A   Overcast
8:54 AM 66.0 °F 57.9 °F 75% 29.79 in 10.0 mi North 5.8 mph - N/A   Overcast
9:54 AM 66.9 °F 57.0 °F 70% 29.81 in 10.0 mi NNW 8.1 mph - N/A   Overcast
10:21 AM 66.2 °F 57.2 °F 73% 29.84 in 10.0 mi NW 11.5 mph - N/A   Overcast
10:54 AM 66.9 °F 55.9 °F 68% 29.83 in 10.0 mi North 10.4 mph - N/A   Overcast
11:36 AM 69.8 °F 55.4 °F 60% 29.86 in 10.0 mi NNW 8.1 mph - N/A   Overcast
11:54 AM 70.0 °F 55.9 °F 61% 29.84 in 10.0 mi Variable 5.8 mph - N/A   Overcast
12:54 PM 71.1 °F 55.0 °F 57% 29.83 in 10.0 mi North 15.0 mph 21.9 mph N/A   Overcast
1:54 PM 73.9 °F 54.0 °F 50% 29.83 in 10.0 mi North 16.1 mph 21.9 mph N/A   Mostly Cloudy
2:54 PM 73.9 °F 52.0 °F 46% 29.85 in 10.0 mi NNW 11.5 mph - N/A   Scattered Clouds
3:54 PM 73.0 °F 51.1 °F 46% 29.86 in 10.0 mi North 11.5 mph - N/A   Mostly Cloudy
4:54 PM 72.0 °F 50.0 °F 46% 29.87 in 10.0 mi NW 12.7 mph 20.7 mph N/A   Scattered Clouds
5:26 PM 71.6 °F 50.0 °F 46% 29.91 in 10.0 mi NNW 15.0 mph - N/A   Overcast
5:54 PM 71.1 °F 48.9 °F 45% 29.89 in 10.0 mi North 13.8 mph 19.6 mph N/A   Overcast
6:54 PM 68.0 °F 48.9 °F 50% 29.90 in 10.0 mi North 11.5 mph - N/A   Mostly Cloudy
7:54 PM 64.9 °F 48.9 °F 56% 29.93 in 10.0 mi NNE 9.2 mph - N/A   Scattered Clouds
8:54 PM 64.0 °F 48.9 °F 58% 29.95 in 10.0 mi North 9.2 mph - N/A   Mostly Cloudy
9:54 PM 63.0 °F 46.9 °F 56% 29.97 in 10.0 mi North 11.5 mph 17.3 mph N/A   Mostly Cloudy
10:54 PM 62.1 °F 46.9 °F 58% 29.99 in 10.0 mi NE 12.7 mph - N/A   Overcast
11:54 PM 61.0 °F 46.9 °F 60% 30.00 in 10.0 mi North 10.4 mph - N/A   Overcast